Flag for India Weather past 2 weeks in New Okhla Industrial Development Authority, Uttar Pradesh, India

Now
86 °F

Haze.


Feels Like: 85 °F
Forecast: 70 / 91 °F
Wind: 6 mph from East

Location: New Delhi Palam Airport

Current Time: Oct 24, 2014 at 5:43:31 PM

Latest Report: Oct 24, 2014 at 5:00 PM


Visibility: 1 mi

Pressure: 29.86 "Hg

Humidity: 40%

Dew point: 59 °F

Location of New Okhla Industrial Development AuthorityLocation

Historic Weather in New Okhla Industrial Development Authority — Graph

°F

New Okhla Industrial Development Authority temperature yesterday

Maximum temperature yesterday: 90 °F (at 2:00 PM)
Minimum temperature yesterday: 68 °F (at 3:30 AM)
Average temperature yesterday: 78 °F

Past Weeks' High & Low Weather Summary

 TemperatureHumidityPressure
High95 °F (Oct 9, 3:30 PM)94% (Oct 17, 4:30 AM)30.07 "Hg (Oct 17, 4:30 AM)
Low63 °F (Oct 17, 4:30 AM)20% (Oct 12, 4:30 PM)29.77 "Hg (Oct 10, 4:30 PM)
Average78 °F56%29.91 "Hg
* Reported Oct 9 3:30 PM — Oct 24 4:00 PM, New Okhla Industrial Development Authority, Weather by CustomWeather, © 2014

Note: Actual official high and low records may vary slightly from our data, if they occured in-between our weather recording intervals... More about our weather records

Advertising

New Okhla Industrial Development Authority weather history for previous 24 hours

 ConditionsComfort  
Time TempWeatherWind HumidityBarometerVisibility
4:00 PM
Oct 24
88 °FHaze.6 mph40%29.86 "Hg1 mi
3:30 PM88 °FHaze.7 mph40%29.86 "Hg1 mi
3:00 PM90 °FHaze.7 mph36%29.86 "Hg1 mi
2:30 PM90 °FHaze.3 mph36%29.89 "Hg1 mi
2:00 PM90 °FHaze.3 mph36%29.89 "Hg2 mi
1:30 PM88 °FHaze.3 mph38%29.89 "Hg2 mi
1:00 PM88 °FHaze.5 mph38%29.92 "Hg2 mi
12:30 PM88 °FHaze.6 mph38%29.92 "Hg2 mi
11:00 AM84 °FHaze.5 mph48%29.95 "Hg2 mi
10:30 AM81 °FHaze.6 mph58%29.95 "Hg1 mi
10:00 AM81 °FClear.6 mph58%29.98 "Hg1 mi
9:30 AM79 °FClear.5 mph61%29.98 "Hg1 mi
9:00 AM75 °FClear.6 mph69%29.98 "Hg1 mi
8:30 AM75 °FFog.5 mph69%29.95 "Hg1 mi
7:30 AM73 °FFog.3 mph74%29.95 "Hg1 mi
7:00 AM72 °FFog.3 mph78%29.92 "Hg1 mi
6:30 AM72 °FFog.5 mph78%29.92 "Hg1 mi
6:00 AM72 °FFog.5 mph78%29.92 "Hg1 mi
5:30 AM72 °FFog.No wind78%29.92 "Hg1 mi
5:00 AM72 °FFog.No wind78%29.92 "Hg1 mi
4:30 AM72 °FFog.No wind78%29.92 "Hg1 mi
4:00 AM72 °FFog.No wind78%29.92 "Hg1 mi
3:00 AM72 °FFog.3 mph78%29.92 "Hg1 mi
2:00 AM73 °FFog.No wind78%29.92 "Hg0 mi
1:30 AM73 °FFog.3 mph78%29.92 "Hg0 mi
1:00 AM73 °FFog.3 mph78%29.92 "Hg0 mi
12:30 AM73 °FFog.3 mph78%29.92 "Hg0 mi
12:00 AM73 °FFog.5 mph78%29.92 "Hg1 mi
11:30 PM
Oct 23
73 °FFog.3 mph78%29.92 "Hg1 mi
11:00 PM73 °FFog.No wind78%29.92 "Hg1 mi
10:00 PM75 °FClear.3 mph65%29.92 "Hg1 mi
9:30 PM77 °FClear.3 mph61%29.92 "Hg1 mi
8:00 PM81 °FHaze.3 mph51%29.92 "Hg1 mi
7:00 PM82 °FHaze.3 mph45%29.89 "Hg1 mi
6:30 PM84 °FHaze.2 mph40%29.89 "Hg1 mi
6:00 PM86 °FHaze.5 mph40%29.89 "Hg2 mi
5:30 PM88 °FHaze.5 mph33%29.86 "Hg2 mi
5:00 PM88 °FHaze.5 mph38%29.86 "Hg2 mi
Weather by CustomWeather, © 2014

See weather overviewHow to use our weather pages